[[{"header":{"parameterUnit":"m.s-1","parameterCategory":1,"la1":30.2991,"la2":30.254,"lo1":-89.0895,"lo2":-89.0444,"dy":0.0017,"dx":0.0017,"nx":28,"ny":28,"refTime":"2025-12-18T03:00:00:Z","depth":0,"parameterNumber":2,"parameterNumberName":"U-component_of_WINDS"},"data":[0,0,0,0,0,0,0,0,0,0,0,0,0,0,0,0,0,0,0,0,0,0,0,0,0,0,0,0,0,0,0,0,0,0,0,0,0,0,0,0,0,0,0,0,0,0,0,0,0,0,0,0,0,0,0,0,0,0,-1.3056,-1.3058,0,-1.3168,-1.317,-1.3171,-1.3228,-1.3228,-1.3228,-1.3228,-1.3344,-1.3347,-1.335,0,0,0,0,0,0,0,0,0,0,0,0,0,-1.2893,-1.2896,-1.3056,-1.3058,-1.3059,-1.3168,-1.317,-1.3171,-1.3228,-1.3228,-1.3228,-1.3228,-1.3343,-1.3347,-1.3351,0,0,0,0,0,0,0,0,0,0,0,0,0,-1.298,-1.2896,-1.3056,-1.31,-1.3105,-1.3168,-1.317,-1.3172,-1.3228,-1.3228,-1.3228,-1.3228,-1.3342,-1.3347,-1.3351,-1.3379,0,0,-1.3365,-1.3367,0,0,0,0,0,0,0,0,-1.2975,-1.2986,-1.3092,-1.3097,-1.3103,-1.3184,-1.3155,-1.3241,-1.3228,-1.3181,-1.3228,-1.3228,-1.3291,-1.33,-1.3321,-1.3384,-1.3389,-1.3366,-1.3369,-1.3371,-1.3372,0,0,0,0,0,0,0,-1.2969,-1.2982,-1.3101,-1.3094,-1.3101,-1.3115,-1.3128,-1.3172,-1.3235,-1.3185,-1.319,-1.3202,-1.3294,-1.3316,-1.3324,-1.3391,-1.3366,-1.337,-1.3373,-1.3374,-1.3483,-1.3483,0,0,0,0,0,0,-1.2956,-1.2976,-1.3097,-1.3104,-1.3038,-1.3118,-1.3132,-1.3158,-1.3234,-1.3246,-1.3202,-1.3204,-1.3309,-1.3319,-1.3328,-1.3366,-1.3371,-1.3375,-1.3377,-1.3483,-1.3483,-1.3483,0,0,0,0,0,0,-1.2952,-1.2966,-1.3093,-1.3041,-1.3059,-1.3121,-1.315,-1.316,-1.3183,-1.3247,-1.3259,-1.3213,-1.3309,-1.3322,-1.3366,-1.3371,-1.3377,-1.3381,-1.3483,-1.3483,-1.3483,-1.3441,0,0,0,0,0,0,-1.2947,-1.2964,-1.2975,-1.3041,-1.3061,-1.3127,-1.315,-1.3162,-1.319,-1.3194,-1.326,-1.3271,-1.331,-1.3359,-1.337,-1.3377,-1.3385,-1.3482,-1.3483,-1.3483,-1.3442,-1.3439,-1.3437,0,0,0,0,0,-1.2941,-1.2959,-1.2975,-1.2989,-1.3076,-1.3128,-1.3139,-1.3183,-1.319,-1.3202,-1.3243,-1.3269,-1.3368,-1.3363,-1.3376,-1.3385,-1.3482,-1.3483,-1.3483,-1.3443,-1.344,-1.3437,0,0,0,0,0,0,-1.2892,-1.2968,-1.2987,-1.3027,-1.307,-1.3137,-1.3153,-1.3178,-1.322,-1.3223,-1.3276,-1.329,-1.3329,-1.3361,-1.3354,-1.3415,-1.3428,-1.3431,-1.3393,-1.339,-1.3388,-1.338,-1.3389,0,0,0,0,0,-1.2886,-1.2921,-1.2986,-1.3015,-1.3035,-1.309,-1.3114,-1.3144,-1.3191,-1.321,-1.3255,-1.33,-1.3342,-1.3368,-1.341,-1.3447,-1.3462,-1.3459,-1.3457,-1.3455,-1.3457,-1.3479,-1.3479,-1.3484,-1.3484,-1.3484,0,0,-1.2874,-1.292,-1.2939,-1.3006,-1.3043,-1.3079,-1.3105,-1.3142,-1.3169,-1.3216,-1.326,-1.3294,-1.3349,-1.3389,-1.3409,-1.3417,-1.3459,-1.3455,-1.3453,-1.3456,-1.348,-1.3479,-1.3479,-1.3484,-1.3484,-1.3484,0,0,-1.2869,-1.2907,-1.2936,-1.2972,-1.3028,-1.3064,-1.307,-1.3134,-1.3158,-1.3203,-1.3239,-1.3272,-1.3342,-1.3379,-1.3407,-1.3417,-1.3443,-1.3429,-1.3417,-1.3438,-1.3438,-1.3438,-1.3442,-1.3442,-1.3431,-1.3431,-1.3431,0,-1.2847,-1.2902,-1.2947,-1.2982,-1.3011,-1.3054,-1.3083,-1.3117,-1.3183,-1.3202,-1.321,-1.3299,-1.3339,-1.3389,-1.3391,-1.3412,-1.3422,-1.3422,-1.3434,-1.3435,-1.3435,-1.3439,-1.3441,-1.3429,-1.3429,-1.3429,-1.343,0,-1.2872,-1.2909,-1.2926,-1.2988,-1.3019,-1.305,-1.3101,-1.3127,-1.3154,-1.3189,-1.3235,-1.3284,-1.3336,-1.335,-1.3377,-1.3404,-1.3407,-1.3424,-1.3438,-1.3432,-1.3437,-1.3439,-1.3426,-1.3427,-1.3427,-1.3428,0,0,-1.2841,-1.2927,-1.2932,-1.2961,-1.3025,-1.3055,-1.3089,-1.314,-1.3161,-1.3206,-1.3236,-1.3294,-1.331,-1.3341,-1.3373,-1.3392,-1.3397,-1.3407,-1.3409,-1.3403,-1.343,-1.3417,-1.3418,-1.3414,-1.3414,-1.3415,-1.3426,0,-1.2846,-1.2907,-1.2949,-1.2995,-1.303,-1.3072,-1.3102,-1.3145,-1.3179,-1.3214,-1.3252,-1.3293,-1.331,-1.333,-1.335,-1.3392,-1.3403,-1.3391,-1.3443,-1.3445,-1.3428,-1.3421,-1.3407,-1.3415,-1.3428,-1.3428,-1.3428,0,-1.286,-1.2902,-1.2951,-1.3011,-1.3028,-1.3053,-1.3103,-1.3136,-1.3186,-1.321,-1.3245,-1.3277,-1.3316,-1.3326,-1.338,-1.3371,-1.3395,-1.3418,-1.342,-1.3426,-1.3436,-1.3428,-1.3419,-1.342,-1.3432,-1.3432,-1.3431,0,-1.2832,-1.2901,-1.2939,-1.2963,-1.3034,-1.3051,-1.3082,-1.3132,-1.316,-1.3203,-1.3222,-1.327,-1.3296,-1.3333,-1.3377,-1.338,-1.3427,-1.3441,-1.3448,-1.3447,-1.3456,-1.3455,-1.3451,-1.3471,-1.3471,-1.3471,-1.3471,0,-1.2833,-1.2862,-1.2928,-1.2951,-1.2985,-1.3033,-1.3064,-1.3099,-1.3143,-1.3174,-1.3214,-1.3242,-1.3299,-1.3336,-1.3371,-1.341,-1.3422,-1.3443,-1.3452,-1.3439,-1.3437,-1.3456,-1.3456,-1.3471,-1.3471,-1.3471,-1.3471,0,-1.2808,-1.2853,-1.2898,-1.2961,-1.2978,-1.3,-1.3055,-1.308,-1.3116,-1.3155,-1.3167,-1.3224,-1.3269,-1.3317,-1.3378,-1.3402,-1.344,-1.3452,-1.3422,-1.3428,-1.3433,-1.3431,-1.3441,-1.3445,-1.3461,-1.3461,-1.3461,0,-1.2805,-1.2828,-1.2894,-1.2917,-1.2947,-1.2984,-1.3013,-1.3061,-1.3089,-1.3147,-1.3165,-1.3213,-1.3253,-1.3323,-1.337,-1.3417,-1.3432,-1.3432,-1.3439,-1.3426,-1.3432,-1.343,-1.3433,-1.3429,-1.3429,-1.3429,-1.3428,0,-1.2797,-1.2818,-1.2857,-1.2903,-1.2936,-1.2975,-1.3016,-1.3033,-1.309,-1.312,-1.3165,-1.3197,-1.3259,-1.3305,-1.3358,-1.3391,-1.3419,-1.3425,-1.343,-1.3417,-1.3399,-1.3409,-1.3416,-1.3425,-1.3425,-1.3426,-1.3426,-1.3426,-1.2783,-1.2805,-1.2855,-1.2897,-1.2933,-1.297,-1.2996,-1.3035,-1.3074,-1.3128,-1.3154,-1.32,-1.325,-1.3323,-1.3355,-1.3392,-1.3401,-1.3407,-1.3409,-1.341,-1.3407,-1.3393,-1.3402,-1.3402,-1.3403,-1.3403,-1.3403,0,-1.2777,-1.281,-1.2849,-1.2904,-1.2937,-1.296,-1.3007,-1.3033,-1.3072,-1.3116,-1.3155,-1.3208,-1.3253,-1.3304,-1.3353,-1.3373,-1.3387,-1.3384,-1.3384,-1.3391,-1.3396,-1.3387,-1.3372,-1.3372,-1.3372,-1.3372,-1.3372,-1.3372,-1.2777,-1.2816,-1.2843,-1.29,-1.2934,-1.2978,-1.3003,-1.3038,-1.3073,-1.3129,-1.3167,-1.32,-1.3247,-1.33,-1.3343,-1.3357,-1.3373,-1.3366,-1.3384,-1.3388,-1.339,-1.3393,-1.3385,-1.337,-1.337,-1.3376,-1.3376,-1.3376]},{"header":{"parameterUnit":"m.s-1","parameterCategory":1,"la1":30.2991,"la2":30.254,"lo1":-89.0895,"lo2":-89.0444,"dy":0.0017,"dx":0.0017,"nx":28,"ny":28,"refTime":"2025-12-18T03:00:00:Z","depth":0,"parameterNumber":3,"parameterNumberName":"V-component_of_WINDS"},"data":[0,0,0,0,0,0,0,0,0,0,0,0,0,0,0,0,0,0,0,0,0,0,0,0,0,0,0,0,0,0,0,0,0,0,0,0,0,0,0,0,0,0,0,0,0,0,0,0,0,0,0,0,0,0,0,0,0,0,2.8971,2.8971,0,2.8977,2.8977,2.8977,2.8971,2.8971,2.8971,2.8971,2.8974,2.8974,2.8975,0,0,0,0,0,0,0,0,0,0,0,0,0,2.8954,2.8955,2.8971,2.8971,2.8972,2.8977,2.8977,2.8977,2.8971,2.8971,2.8971,2.8971,2.8974,2.8974,2.8975,0,0,0,0,0,0,0,0,0,0,0,0,0,2.8961,2.8955,2.8971,2.8969,2.8969,2.8977,2.8977,2.8977,2.8971,2.8971,2.8971,2.897,2.8974,2.8974,2.8975,2.8984,0,0,2.8976,2.8976,0,0,0,0,0,0,0,0,2.8961,2.8962,2.897,2.897,2.8969,2.8973,2.8972,2.8979,2.8971,2.8971,2.8971,2.897,2.8974,2.8974,2.8976,2.8984,2.8984,2.8976,2.8976,2.8977,2.8977,0,0,0,0,0,0,0,2.896,2.8961,2.8973,2.897,2.897,2.8968,2.8968,2.8974,2.8974,2.8971,2.897,2.8971,2.8974,2.8976,2.8976,2.8984,2.8976,2.8976,2.8977,2.8977,2.9001,2.9002,0,0,0,0,0,0,2.896,2.8961,2.8973,2.8974,2.8964,2.8968,2.8969,2.8972,2.8974,2.8974,2.8971,2.8971,2.8975,2.8975,2.8976,2.8988,2.8977,2.8977,2.8977,2.9001,2.9001,2.9002,0,0,0,0,0,0,2.896,2.8961,2.8973,2.8967,2.8969,2.8969,2.8973,2.8973,2.8974,2.8974,2.8974,2.8973,2.8975,2.8975,2.8982,2.8988,2.8977,2.8978,2.9,2.9001,2.9001,2.9011,0,0,0,0,0,0,2.8959,2.8961,2.8965,2.8967,2.8969,2.898,2.8973,2.8973,2.8975,2.8975,2.8976,2.8976,2.8975,2.8982,2.8983,2.8988,2.8978,2.9,2.9001,2.9001,2.901,2.9012,2.9013,0,0,0,0,0,2.8959,2.8967,2.8965,2.8967,2.8974,2.898,2.8981,2.898,2.8976,2.898,2.898,2.8976,2.8987,2.8983,2.8984,2.8989,2.8999,2.9,2.9001,2.9009,2.9011,2.9013,0,0,0,0,0,0,2.8964,2.8967,2.8965,2.8974,2.8977,2.8979,2.8984,2.8982,2.8985,2.8984,2.8982,2.8982,2.899,2.899,2.8985,2.8999,2.8993,2.8994,2.8998,2.9,2.9002,2.9002,2.8978,0,0,0,0,0,2.8966,2.8971,2.8974,2.8981,2.8983,2.8983,2.8986,2.8985,2.8987,2.8988,2.8989,2.8991,2.8995,2.8997,2.9001,2.901,2.9011,2.9014,2.9016,2.9017,2.9018,2.9024,2.9026,2.9004,2.9004,2.9004,0,0,2.897,2.8973,2.8976,2.8982,2.8984,2.899,2.8984,2.899,2.8994,2.8989,2.8996,2.8996,2.8998,2.9007,2.901,2.9007,2.9024,2.9018,2.9019,2.902,2.9025,2.9027,2.9029,2.9005,2.9005,2.9005,0,0,2.8981,2.8983,2.8991,2.8993,2.8997,2.8998,2.8999,2.9002,2.9003,2.901,2.9007,2.9011,2.9018,2.902,2.9022,2.9035,2.9032,2.9036,2.9044,2.905,2.9051,2.9053,2.9058,2.906,2.9037,2.9037,2.9037,0,2.8986,2.8995,2.8994,2.9001,2.9004,2.9001,2.9009,2.9011,2.9015,2.9017,2.9014,2.9023,2.9024,2.9033,2.9037,2.9038,2.904,2.9036,2.9051,2.9053,2.9054,2.9059,2.9061,2.9037,2.9037,2.9037,2.9037,0,2.9001,2.9007,2.9013,2.9019,2.9022,2.9029,2.9029,2.9033,2.9032,2.9032,2.904,2.9042,2.9046,2.9048,2.9046,2.9057,2.9056,2.9052,2.9045,2.9057,2.9062,2.9064,2.9038,2.9038,2.9038,2.9038,0,0,2.9014,2.9021,2.9023,2.9027,2.9031,2.9036,2.9042,2.9048,2.9052,2.9055,2.9061,2.9067,2.9064,2.9066,2.9065,2.907,2.9081,2.9065,2.9065,2.9069,2.9095,2.9098,2.91,2.9079,2.908,2.908,2.9095,0,2.9026,2.904,2.904,2.9052,2.9058,2.9056,2.9062,2.9065,2.9066,2.9071,2.9072,2.9077,2.9072,2.9073,2.9078,2.9079,2.9086,2.9078,2.9085,2.9085,2.9085,2.9103,2.9106,2.912,2.9097,2.9097,2.9097,0,2.9042,2.9048,2.9061,2.9066,2.9068,2.9074,2.908,2.9084,2.9088,2.9088,2.9092,2.909,2.9097,2.909,2.91,2.9094,2.9097,2.9098,2.9098,2.9099,2.9092,2.9105,2.9124,2.9127,2.91,2.91,2.9099,0,2.9052,2.9062,2.9072,2.9074,2.908,2.9084,2.9087,2.909,2.9094,2.9099,2.9101,2.9106,2.9109,2.9113,2.9112,2.9107,2.9122,2.9115,2.9123,2.9123,2.9127,2.9126,2.9148,2.9127,2.9127,2.9127,2.9127,0,2.9065,2.9074,2.9077,2.9082,2.9092,2.9092,2.9101,2.9103,2.9107,2.9113,2.911,2.9116,2.9115,2.912,2.9119,2.9128,2.9129,2.913,2.9129,2.913,2.913,2.9132,2.9132,2.9128,2.9128,2.9127,2.9127,0,2.9078,2.908,2.9091,2.9096,2.9097,2.9104,2.9108,2.9114,2.9115,2.9123,2.9125,2.9126,2.9133,2.9133,2.914,2.9139,2.915,2.9149,2.915,2.9149,2.9157,2.9157,2.9181,2.9185,2.9161,2.9161,2.9162,0,2.9087,2.9093,2.91,2.9105,2.9108,2.9115,2.9119,2.912,2.9124,2.913,2.9135,2.9141,2.9147,2.9157,2.9158,2.9164,2.9163,2.9171,2.9164,2.9165,2.9164,2.9164,2.9165,2.9173,2.9173,2.9173,2.9173,0,2.9102,2.9104,2.911,2.9118,2.9124,2.913,2.9135,2.9138,2.914,2.9145,2.9152,2.9157,2.9165,2.9171,2.9177,2.9179,2.9176,2.9176,2.9178,2.9179,2.918,2.918,2.9154,2.9175,2.9175,2.9175,2.9175,2.9174,2.9114,2.912,2.9127,2.9135,2.9139,2.9144,2.9151,2.9153,2.916,2.9167,2.9167,2.9175,2.918,2.9187,2.919,2.9196,2.9193,2.9196,2.9197,2.9198,2.9199,2.9178,2.9197,2.9197,2.9197,2.9197,2.9197,0,2.913,2.9135,2.9142,2.9151,2.9157,2.9156,2.9162,2.9167,2.9175,2.918,2.9186,2.9195,2.9201,2.9204,2.921,2.9215,2.9214,2.9217,2.9217,2.9217,2.9201,2.9199,2.9217,2.9217,2.9217,2.9217,2.9217,2.9217,2.9139,2.9151,2.9153,2.9167,2.9171,2.918,2.9184,2.9189,2.9193,2.9204,2.921,2.9212,2.9216,2.9223,2.9229,2.923,2.9232,2.9236,2.9236,2.922,2.9218,2.9216,2.9214,2.9236,2.9236,2.9252,2.9252,2.9252]}]]